Location: Garos
(43.5000°N, 0.4667°W)
Time: 03:51:59
(UTC+00:00)

Cosmos 2322 Rocket - Pass Details

Date: 03 February 2023
Orbit: 831 x 851 km, 71.0° (Epoch: 26 March)

Event Time Altitude Azimuth Distance (km) Brightness Sun altitude
Rises 19:58:47 0° 250° (WSW) 3,369 6.3 -29.8°
Reaches altitude 10° 20:01:55 10° 267° (W) 2,439 5.5 -30.4°
Maximum altitude 20:05:51 19° 312° (NW) 1,878 4.5 -31.1°
Drops below altitude 10° 20:09:49 10° 358° (N) 2,452 4.7 -31.8°
Enters shadow 20:10:27 - 2° (N) 2,623 4.8 -31.9°
